| time (UTC) | temp F | wind direction | speed knots | gust knots | rain 1hr in | rain 24hr in | rain mn in | humidity % | barometer mb |
| 20260507085519 | 37 | 0 | 0.0 | 3.5 | 0.00 | 0.47 | 0.00 | 93 | 1006.1 |
| 20260507085020 | 37 | 216 | 0.0 | 5.2 | 0.00 | 0.47 | 0.00 | 93 | 1006.2 |
| 20260507084541 | 37 | 161 | 0.9 | 5.2 | 0.00 | 0.47 | 0.00 | 93 | 1006.3 |
| 20260507084025 | 37 | 221 | 0.9 | 4.3 | 0.00 | 0.47 | 0.00 | 93 | 1006.2 |
| 20260507083519 | 37 | 0 | 0.0 | 4.3 | 0.00 | 0.47 | 0.00 | 93 | 1006.3 |
| 20260507083039 | 37 | 81 | 0.9 | 4.3 | 0.00 | 0.47 | 0.00 | 93 | 1006.2 |
| 20260507082521 | 37 | 0 | 0.0 | 3.5 | 0.00 | 0.47 | 0.00 | 93 | 1006.1 |
| 20260507082020 | 37 | 0 | 0.9 | 6.1 | 0.00 | 0.47 | 0.00 | 93 | 1006.1 |
| 20260507081538 | 37 | 259 | 0.9 | 6.1 | 0.00 | 0.47 | 0.00 | 93 | 1006.1 |
| 20260507081021 | 37 | 0 | 0.0 | 4.3 | 0.00 | 0.47 | 0.00 | 93 | 1006.1 |
| 20260507080526 | 37 | 0 | 0.0 | 8.7 | 0.00 | 0.47 | 0.00 | 92 | 1006.3 |
| 20260507080041 | 37 | 247 | 2.6 | 8.7 | 0.00 | 0.47 | 0.00 | 92 | 1006.2 |
| 20260507075522 | 37 | 278 | 0.9 | 2.6 | 0.00 | 0.47 | 0.00 | 92 | 1006.2 |
| 20260507075022 | 37 | 0 | 0.0 | 4.3 | 0.00 | 0.47 | 0.00 | 92 | 1006.2 |
| 20260507074536 | 37 | 0 | 0.9 | 6.1 | 0.00 | 0.47 | 0.00 | 93 | 1006.2 |
| 20260507074021 | 37 | 241 | 0.0 | 7.8 | 0.00 | 0.47 | 0.00 | 93 | 1006.1 |
| 20260507073521 | 37 | 113 | 0.9 | 7.8 | 0.00 | 0.47 | 0.00 | 93 | 1005.9 |
| 20260507073036 | 37 | 205 | 1.7 | 7.8 | 0.00 | 0.47 | 0.00 | 93 | 1005.8 |
| 20260507072519 | 37 | 244 | 0.0 | 4.3 | 0.00 | 0.47 | 0.00 | 93 | 1005.9 |
| 20260507072018 | 37 | 244 | 0.9 | 6.1 | 0.00 | 0.47 | 0.00 | 93 | 1005.7 |
| 20260507071536 | 37 | 0 | 0.9 | 7.8 | 0.00 | 0.47 | 0.00 | 93 | 1005.7 |
| 20260507071022 | 38 | 227 | 2.6 | 7.8 | 0.00 | 0.47 | 0.00 | 93 | 1005.6 |
| 20260507070522 | 38 | 238 | 1.7 | 7.0 | 0.00 | 0.47 | 0.00 | 93 | 1005.6 |
| 20260507070036 | 38 | 0 | 1.7 | 6.1 | 0.00 | 0.47 | 0.00 | 93 | 1005.5 |
| 20260507065518 | 38 | 253 | 1.7 | 6.1 | 0.00 | 0.47 | 0.00 | 93 | 1005.6 |
| 20260507065018 | 38 | 162 | 0.9 | 4.3 | 0.00 | 0.47 | 0.00 | 93 | 1005.6 |
| 20260507064540 | 38 | 245 | 0.0 | 4.3 | 0.00 | 0.47 | 0.00 | 93 | 1005.5 |
| 20260507064023 | 38 | 250 | 0.9 | 6.1 | 0.00 | 0.47 | 0.00 | 93 | 1005.5 |
| 20260507063520 | 38 | 242 | 0.9 | 6.1 | 0.00 | 0.47 | 0.00 | 93 | 1005.7 |
| 20260507063034 | 38 | 0 | 0.0 | 9.6 | 0.00 | 0.47 | 0.00 | 93 | 1005.6 |
| 20260507062522 | 38 | 215 | 0.9 | 10.4 | 0.00 | 0.47 | 0.00 | 93 | 1005.7 |
| 20260507062020 | 38 | 248 | 0.9 | 10.4 | 0.00 | 0.47 | 0.00 | 93 | 1005.5 |
| 20260507061535 | 38 | 254 | 0.9 | 8.7 | 0.00 | 0.47 | 0.00 | 93 | 1005.5 |
| 20260507061021 | 38 | 153 | 1.7 | 8.7 | 0.00 | 0.47 | 0.00 | 93 | 1005.6 |
| 20260507060521 | 38 | 239 | 0.9 | 9.6 | 0.00 | 0.47 | 0.00 | 93 | 1005.5 |
| 20260507060037 | 38 | 220 | 3.5 | 10.4 | 0.00 | 0.47 | 0.00 | 93 | 1005.4 |
| 20260507055521 | 38 | 245 | 3.5 | 10.4 | 0.00 | 0.47 | 0.00 | 93 | 1006.0 |
| 20260507055022 | 38 | 210 | 1.7 | 7.8 | 0.00 | 0.47 | 0.00 | 93 | 1006.0 |
| 20260507054540 | 38 | 0 | 0.9 | 6.1 | 0.00 | 0.47 | 0.00 | 93 | 1005.8 |
| 20260507054024 | 38 | 275 | 0.0 | 5.2 | 0.00 | 0.47 | 0.00 | 93 | 1006.1 |
| 20260507053521 | 38 | 275 | 0.0 | 6.1 | 0.00 | 0.47 | 0.00 | 93 | 1006.3 |
| 20260507053034 | 38 | 285 | 1.7 | 6.1 | 0.00 | 0.47 | 0.00 | 92 | 1006.2 |
| 20260507052521 | 38 | 237 | 0.0 | 8.7 | 0.00 | 0.47 | 0.00 | 92 | 1006.1 |
| 20260507052023 | 38 | 0 | 0.9 | 11.3 | 0.00 | 0.47 | 0.00 | 92 | 1006.2 |
| 20260507051535 | 38 | 224 | 1.7 | 11.3 | 0.00 | 0.47 | 0.00 | 92 | 1006.1 |
| 20260507051020 | 38 | 246 | 4.3 | 11.3 | 0.00 | 0.47 | 0.00 | 92 | 1006.3 |
| 20260507050521 | 38 | 265 | 3.5 | 11.3 | 0.00 | 0.47 | 0.00 | 91 | 1006.2 |
| 20260507050042 | 38 | 0 | 1.7 | 6.1 | 0.00 | 0.47 | 0.00 | 91 | 1006.0 |
| 20260507045521 | 38 | 259 | 0.9 | 7.8 | 0.00 | 0.48 | 0.00 | 90 | 1006.1 |
| 20260507045021 | 38 | 257 | 0.0 | 15.6 | 0.00 | 0.48 | 0.00 | 90 | 1006.2 |
| 20260507044538 | 38 | 287 | 1.7 | 15.6 | 0.00 | 0.48 | 0.00 | 90 | 1006.2 |
| 20260507044022 | 38 | 252 | 5.2 | 15.6 | 0.00 | 0.48 | 0.00 | 89 | 1006.2 |
| 20260507043524 | 38 | 221 | 0.0 | 8.7 | 0.00 | 0.48 | 0.00 | 89 | 1006.1 |
| 20260507043035 | 38 | 224 | 2.6 | 8.7 | 0.00 | 0.48 | 0.00 | 89 | 1005.9 |
| 20260507042520 | 38 | 225 | 2.6 | 8.7 | 0.00 | 0.48 | 0.00 | 89 | 1005.8 |
| 20260507042021 | 39 | 261 | 2.6 | 8.7 | 0.00 | 0.48 | 0.00 | 88 | 1005.9 |
| 20260507041549 | 39 | 253 | 0.9 | 4.3 | 0.00 | 0.48 | 0.00 | 88 | 1005.8 |
| 20260507041019 | 39 | 244 | 0.9 | 3.5 | 0.00 | 0.48 | 0.00 | 89 | 1006.1 |
| 20260507040524 | 39 | 246 | 0.9 | 4.3 | 0.00 | 0.48 | 0.00 | 88 | 1006.0 |
| 20260507040034 | 39 | 0 | 0.0 | 4.3 | 0.00 | 0.48 | 0.00 | 87 | 1006.0 |
| 20260507035521 | 39 | 245 | 0.0 | 0.9 | 0.00 | 0.52 | 0.48 | 88 | 1005.9 |
| 20260507035020 | 39 | 0 | 0.0 | 2.6 | 0.00 | 0.52 | 0.48 | 89 | 1005.9 |
| 20260507034536 | 39 | 0 | 0.0 | 6.1 | 0.00 | 0.52 | 0.48 | 88 | 1005.7 |
| 20260507034021 | 39 | 0 | 0.9 | 7.0 | 0.00 | 0.52 | 0.48 | 87 | 1005.9 |
| 20260507033521 | 39 | 245 | 0.9 | 7.0 | 0.00 | 0.52 | 0.48 | 87 | 1005.9 |
| 20260507033044 | 39 | 239 | 1.7 | 7.0 | 0.00 | 0.52 | 0.48 | 88 | 1006.0 |
| 20260507032522 | 39 | 236 | 1.7 | 7.8 | 0.00 | 0.52 | 0.48 | 89 | 1006.1 |
| 20260507032019 | 39 | 241 | 1.7 | 7.8 | 0.00 | 0.52 | 0.48 | 90 | 1006.1 |
| 20260507031536 | 39 | 253 | 1.7 | 7.8 | 0.00 | 0.52 | 0.48 | 90 | 1006.1 |
| 20260507031018 | 39 | 236 | 1.7 | 7.8 | 0.00 | 0.52 | 0.48 | 90 | 1006.2 |
| 20260507030523 | 39 | 0 | 1.7 | 8.7 | 0.00 | 0.52 | 0.48 | 91 | 1006.2 |
| 20260507030037 | 39 | 254 | 0.9 | 8.7 | 0.01 | 0.52 | 0.48 | 91 | 1006.4 |
| 20260507025522 | 39 | 232 | 1.7 | 8.7 | 0.01 | 0.52 | 0.48 | 91 | 1006.4 |
| 20260507025022 | 39 | 267 | 1.7 | 8.7 | 0.01 | 0.52 | 0.48 | 91 | 1006.4 |
| 20260507024535 | 39 | 246 | 1.7 | 7.8 | 0.01 | 0.52 | 0.48 | 91 | 1006.5 |
| 20260507024021 | 39 | 239 | 2.6 | 8.7 | 0.01 | 0.52 | 0.48 | 91 | 1006.5 |
| 20260507023521 | 39 | 59 | 1.7 | 8.7 | 0.01 | 0.52 | 0.48 | 92 | 1006.4 |
| 20260507023035 | 39 | 285 | 1.7 | 10.4 | 0.01 | 0.52 | 0.48 | 92 | 1006.5 |
| 20260507022522 | 40 | 218 | 1.7 | 10.4 | 0.01 | 0.52 | 0.48 | 92 | 1006.6 |
| 20260507022021 | 40 | 265 | 1.7 | 7.8 | 0.01 | 0.52 | 0.48 | 93 | 1006.6 |
| 20260507021535 | 40 | 303 | 0.9 | 10.4 | 0.02 | 0.52 | 0.48 | 92 | 1006.8 |
| 20260507021023 | 40 | 241 | 2.6 | 10.4 | 0.02 | 0.52 | 0.48 | 92 | 1006.7 |
| 20260507020522 | 40 | 226 | 1.7 | 8.7 | 0.03 | 0.52 | 0.48 | 92 | 1006.7 |
| 20260507020042 | 40 | 250 | 2.6 | 13.0 | 0.02 | 0.52 | 0.47 | 92 | 1006.7 |
| 20260507015518 | 40 | 236 | 0.9 | 13.0 | 0.02 | 0.52 | 0.47 | 92 | 1006.6 |
| 20260507015021 | 40 | 252 | 1.7 | 13.0 | 0.02 | 0.52 | 0.47 | 92 | 1006.6 |
| 20260507014550 | 40 | 196 | 3.5 | 12.2 | 0.02 | 0.52 | 0.47 | 92 | 1006.5 |
| 20260507014019 | 40 | 227 | 0.9 | 12.2 | 0.02 | 0.52 | 0.47 | 92 | 1006.6 |
| 20260507013519 | 40 | 258 | 2.6 | 12.2 | 0.02 | 0.52 | 0.47 | 92 | 1006.4 |
| 20260507013044 | 41 | 237 | 1.7 | 8.7 | 0.02 | 0.52 | 0.47 | 92 | 1006.3 |
| 20260507012554 | 41 | 321 | 0.9 | 8.7 | 0.03 | 0.52 | 0.47 | 92 | 1006.2 |
| 20260507012025 | 41 | 235 | 0.9 | 7.0 | 0.03 | 0.52 | 0.47 | 92 | 1006.2 |
| 20260507011539 | 42 | 273 | 0.9 | 6.1 | 0.02 | 0.51 | 0.46 | 92 | 1006.2 |
| 20260507011023 | 42 | 240 | 0.9 | 6.1 | 0.02 | 0.51 | 0.46 | 92 | 1006.4 |
| 20260507010520 | 42 | 0 | 0.0 | 7.0 | 0.01 | 0.50 | 0.45 | 92 | 1006.4 |
| 20260507010035 | 42 | 261 | 0.0 | 8.7 | 0.01 | 0.50 | 0.45 | 92 | 1006.4 |
| 20260507005523 | 42 | 244 | 0.9 | 8.7 | 0.01 | 0.50 | 0.45 | 92 | 1006.3 |
| 20260507005022 | 42 | 241 | 0.9 | 5.2 | 0.01 | 0.50 | 0.45 | 93 | 1006.2 |
| 20260507004534 | 42 | 192 | 0.0 | 2.6 | 0.01 | 0.50 | 0.45 | 93 | 1006.2 |
| 20260507004020 | 42 | 0 | 0.0 | 1.7 | 0.01 | 0.50 | 0.45 | 92 | 1006.1 |
| 20260507003523 | 42 | 0 | 0.0 | 7.0 | 0.01 | 0.50 | 0.45 | 92 | 1006.0 |
| 20260507003041 | 43 | 0 | 1.7 | 7.0 | 0.01 | 0.50 | 0.45 | 92 | 1005.8 |
| 20260507002519 | 43 | 229 | 0.0 | 9.6 | 0.00 | 0.49 | 0.44 | 92 | 1005.8 |
| 20260507002021 | 43 | 212 | 2.6 | 9.6 | 0.00 | 0.49 | 0.44 | 92 | 1005.7 |
| 20260507001542 | 43 | 280 | 1.7 | 8.7 | 0.00 | 0.49 | 0.44 | 92 | 1005.6 |
| 20260507001021 | 43 | 238 | 1.7 | 7.8 | 0.00 | 0.49 | 0.44 | 92 | 1005.5 |
| 20260507000526 | 43 | 250 | 0.9 | 7.8 | 0.00 | 0.49 | 0.44 | 92 | 1005.3 |
| 20260507000035 | 44 | 222 | 1.7 | 7.8 | 0.00 | 0.49 | 0.44 | 92 | 1005.5 |
| 20260506235522 | 44 | 182 | 0.0 | 4.3 | 0.00 | 0.49 | 0.44 | 92 | 1005.4 |
| 20260506235020 | 44 | 0 | 0.9 | 3.5 | 0.00 | 0.49 | 0.44 | 92 | 1005.2 |
| 20260506234535 | 44 | 242 | 0.9 | 3.5 | 0.00 | 0.49 | 0.44 | 92 | 1005.0 |
| 20260506234019 | 44 | 157 | 0.9 | 7.0 | 0.00 | 0.49 | 0.44 | 92 | 1004.8 |
| 20260506233522 | 45 | 236 | 0.9 | 8.7 | 0.00 | 0.49 | 0.44 | 92 | 1004.7 |
| 20260506233044 | 45 | 241 | 3.5 | 8.7 | 0.00 | 0.49 | 0.44 | 92 | 1004.6 |
| 20260506232522 | 46 | 247 | 1.7 | 8.7 | 0.00 | 0.49 | 0.44 | 92 | 1004.6 |
| 20260506232022 | 46 | 259 | 2.6 | 8.7 | 0.00 | 0.49 | 0.44 | 92 | 1004.4 |
| 20260506231547 | 46 | 250 | 0.9 | 5.2 | 0.00 | 0.49 | 0.44 | 93 | 1004.4 |
| 20260506231019 | 46 | 172 | 0.9 | 5.2 | 0.00 | 0.49 | 0.44 | 93 | 1004.4 |
| 20260506230518 | 47 | 163 | 0.9 | 6.1 | 0.00 | 0.49 | 0.44 | 93 | 1004.4 |
| 20260506230038 | 47 | 209 | 0.9 | 6.1 | 0.00 | 0.49 | 0.44 | 93 | 1004.5 |
| 20260506225521 | 47 | 200 | 0.9 | 6.1 | 0.00 | 0.49 | 0.44 | 93 | 1004.2 |
| 20260506225024 | 47 | 195 | 0.9 | 6.1 | 0.00 | 0.49 | 0.44 | 93 | 1004.2 |
| 20260506224535 | 47 | 70 | 1.7 | 7.0 | 0.00 | 0.49 | 0.44 | 93 | 1004.0 |
| 20260506224021 | 47 | 152 | 1.7 | 7.0 | 0.00 | 0.49 | 0.44 | 93 | 1004.0 |
| 20260506223519 | 47 | 233 | 1.7 | 7.0 | 0.00 | 0.49 | 0.44 | 93 | 1004.0 |
| 20260506223035 | 47 | 130 | 0.9 | 9.6 | 0.00 | 0.49 | 0.44 | 94 | 1003.9 |
| 20260506222522 | 47 | 207 | 1.7 | 9.6 | 0.00 | 0.49 | 0.44 | 93 | 1003.8 |
| 20260506222022 | 46 | 254 | 1.7 | 9.6 | 0.00 | 0.49 | 0.44 | 93 | 1003.9 |
| 20260506221535 | 46 | 150 | 1.7 | 9.6 | 0.00 | 0.49 | 0.44 | 92 | 1003.9 |
| 20260506221022 | 46 | 167 | 2.6 | 9.6 | 0.00 | 0.49 | 0.44 | 92 | 1003.9 |
| 20260506220521 | 47 | 225 | 2.6 | 10.4 | 0.00 | 0.49 | 0.44 | 90 | 1003.9 |
| 20260506220038 | 49 | 226 | 2.6 | 11.3 | 0.00 | 0.49 | 0.44 | 90 | 1003.7 |
| 20260506215518 | 50 | 262 | 4.3 | 11.3 | 0.00 | 0.49 | 0.44 | 89 | 1003.7 |
| 20260506215021 | 51 | 274 | 1.7 | 10.4 | 0.00 | 0.49 | 0.44 | 89 | 1003.7 |
| 20260506214540 | 52 | 239 | 3.5 | 9.6 | 0.00 | 0.49 | 0.44 | 90 | 1003.6 |
| 20260506214020 | 52 | 224 | 1.7 | 8.7 | 0.00 | 0.49 | 0.44 | 91 | 1003.7 |
| 20260506213519 | 53 | 196 | 0.9 | 7.0 | 0.01 | 0.49 | 0.44 | 91 | 1003.6 |
| 20260506213038 | 53 | 179 | 0.9 | 9.6 | 0.01 | 0.49 | 0.44 | 91 | 1003.6 |
| 20260506212522 | 53 | 146 | 0.9 | 9.6 | 0.01 | 0.49 | 0.44 | 92 | 1003.7 |
| 20260506212024 | 53 | 203 | 1.7 | 9.6 | 0.01 | 0.49 | 0.44 | 91 | 1003.6 |
| 20260506211537 | 53 | 163 | 1.7 | 8.7 | 0.01 | 0.49 | 0.44 | 91 | 1003.6 |
| 20260506211022 | 53 | 261 | 2.6 | 8.7 | 0.01 | 0.49 | 0.44 | 92 | 1003.6 |
| 20260506210522 | 53 | 176 | 2.6 | 8.7 | 0.01 | 0.49 | 0.44 | 92 | 1003.6 |
| 20260506210038 | 53 | 157 | 2.6 | 8.7 | 0.02 | 0.49 | 0.44 | 92 | 1003.7 |
| 20260506205521 | 53 | 120 | 1.7 | 7.8 | 0.02 | 0.54 | 0.44 | 93 | 1003.5 |
| 20260506205021 | 53 | 163 | 1.7 | 7.8 | 0.03 | 0.54 | 0.44 | 93 | 1003.6 |
| 20260506204538 | 53 | 157 | 2.6 | 10.4 | 0.03 | 0.54 | 0.44 | 93 | 1003.7 |
| 20260506204021 | 53 | 178 | 2.6 | 10.4 | 0.03 | 0.54 | 0.44 | 93 | 1003.8 |
| 20260506203519 | 53 | 157 | 1.7 | 10.4 | 0.02 | 0.52 | 0.43 | 94 | 1003.6 |
| 20260506203043 | 53 | 157 | 0.9 | 4.3 | 0.02 | 0.52 | 0.43 | 93 | 1003.7 |
| 20260506202521 | 53 | 0 | 0.0 | 5.2 | 0.03 | 0.52 | 0.43 | 94 | 1003.7 |
| 20260506202020 | 53 | 0 | 0.0 | 7.0 | 0.03 | 0.52 | 0.43 | 93 | 1003.8 |
| 20260506201537 | 53 | 0 | 0.0 | 7.0 | 0.03 | 0.52 | 0.43 | 92 | 1003.9 |
| 20260506201018 | 53 | 144 | 0.0 | 7.0 | 0.04 | 0.52 | 0.43 | 93 | 1003.9 |
| 20260506200518 | 53 | 209 | 0.9 | 10.4 | 0.06 | 0.52 | 0.43 | 93 | 1004.0 |
| 20260506200044 | 53 | 174 | 0.9 | 10.4 | 0.06 | 0.52 | 0.42 | 93 | 1003.9 |
| 20260506195521 | 52 | 155 | 4.3 | 10.4 | 0.07 | 0.52 | 0.42 | 93 | 1003.9 |
| 20260506195019 | 52 | 137 | 2.6 | 8.7 | 0.07 | 0.51 | 0.41 | 94 | 1003.9 |
| 20260506194535 | 52 | 150 | 1.7 | 8.7 | 0.07 | 0.51 | 0.41 | 94 | 1003.9 |
| 20260506194023 | 53 | 162 | 1.7 | 7.8 | 0.07 | 0.51 | 0.41 | 94 | 1003.9 |
| 20260506193520 | 53 | 175 | 1.7 | 7.8 | 0.08 | 0.51 | 0.41 | 94 | 1004.1 |
| 20260506193034 | 53 | 146 | 1.7 | 7.8 | 0.08 | 0.50 | 0.40 | 94 | 1004.0 |
| 20260506192519 | 53 | 146 | 2.6 | 7.0 | 0.09 | 0.50 | 0.40 | 93 | 1004.0 |
| 20260506192021 | 53 | 142 | 1.7 | 5.2 | 0.09 | 0.50 | 0.40 | 93 | 1003.9 |
| 20260506191538 | 54 | 184 | 0.9 | 5.2 | 0.09 | 0.49 | 0.39 | 94 | 1003.9 |
| 20260506191018 | 54 | 159 | 0.0 | 9.6 | 0.08 | 0.48 | 0.38 | 94 | 1003.9 |
| 20260506190523 | 54 | 159 | 0.9 | 9.6 | 0.08 | 0.47 | 0.37 | 94 | 1004.0 |
| 20260506190038 | 54 | 130 | 3.5 | 8.7 | 0.07 | 0.46 | 0.36 | 94 | 1004.1 |
| 20260506185520 | 54 | 188 | 1.7 | 8.7 | 0.06 | 0.45 | 0.35 | 94 | 1004.0 |
| 20260506185022 | 54 | 208 | 2.6 | 8.7 | 0.06 | 0.44 | 0.34 | 95 | 1004.2 |
| 20260506184535 | 54 | 162 | 0.9 | 8.7 | 0.07 | 0.44 | 0.34 | 95 | 1004.3 |
| 20260506184020 | 53 | 169 | 2.6 | 8.7 | 0.07 | 0.44 | 0.34 | 95 | 1004.4 |
| 20260506183521 | 53 | 124 | 2.6 | 7.0 | 0.08 | 0.43 | 0.33 | 95 | 1004.3 |
| 20260506183041 | 53 | 160 | 1.7 | 7.0 | 0.06 | 0.41 | 0.31 | 95 | 1004.4 |
| 20260506182520 | 53 | 98 | 0.9 | 7.0 | 0.07 | 0.41 | 0.31 | 95 | 1004.3 |
| 20260506182021 | 53 | 115 | 2.6 | 7.0 | 0.08 | 0.41 | 0.31 | 95 | 1004.2 |
| 20260506181544 | 53 | 147 | 1.7 | 7.8 | 0.08 | 0.40 | 0.30 | 94 | 1004.2 |
| 20260506181023 | 53 | 161 | 0.9 | 10.4 | 0.09 | 0.40 | 0.30 | 94 | 1004.5 |
| 20260506180528 | 53 | 164 | 1.7 | 10.4 | 0.09 | 0.39 | 0.29 | 94 | 1004.4 |
| 20260506180049 | 53 | 138 | 3.5 | 9.6 | 0.10 | 0.39 | 0.29 | 94 | 1004.6 |
| 20260506175519 | 53 | 119 | 2.6 | 9.6 | 0.11 | 0.39 | 0.29 | 94 | 1004.6 |
| 20260506175020 | 53 | 143 | 1.7 | 9.6 | 0.10 | 0.38 | 0.28 | 93 | 1004.8 |
| 20260506174538 | 53 | 108 | 0.9 | 6.1 | 0.10 | 0.37 | 0.27 | 93 | 1004.9 |
| 20260506174021 | 53 | 153 | 0.9 | 9.6 | 0.10 | 0.36 | 0.26 | 93 | 1005.0 |
| 20260506173520 | 53 | 162 | 3.5 | 9.6 | 0.10 | 0.35 | 0.25 | 92 | 1005.0 |
| 20260506173039 | 53 | 175 | 1.7 | 7.8 | 0.10 | 0.35 | 0.25 | 93 | 1005.2 |
| 20260506172522 | 53 | 149 | 1.7 | 7.8 | 0.10 | 0.34 | 0.24 | 93 | 1005.2 |
| 20260506172026 | 53 | 151 | 1.7 | 7.8 | 0.09 | 0.33 | 0.23 | 93 | 1005.4 |
| 20260506171547 | 53 | 153 | 1.7 | 7.0 | 0.09 | 0.32 | 0.22 | 93 | 1005.6 |
| 20260506171022 | 53 | 134 | 0.9 | 9.6 | 0.09 | 0.31 | 0.21 | 93 | 1005.6 |
| 20260506170523 | 53 | 133 | 3.5 | 14.8 | 0.09 | 0.30 | 0.20 | 93 | 1005.5 |
| 20260506170037 | 53 | 182 | 2.6 | 14.8 | 0.09 | 0.29 | 0.19 | 93 | 1005.7 |
| 20260506165521 | 53 | 175 | 1.7 | 10.4 | 0.08 | 0.28 | 0.18 | 94 | 1005.6 |
| 20260506165022 | 53 | 141 | 3.5 | 10.4 | 0.08 | 0.27 | 0.17 | 94 | 1005.6 |
| 20260506164539 | 53 | 136 | 0.9 | 6.1 | 0.09 | 0.27 | 0.17 | 94 | 1005.5 |
| 20260506164021 | 53 | 0 | 0.9 | 7.0 | 0.08 | 0.26 | 0.16 | 94 | 1005.6 |
| 20260506163520 | 53 | 138 | 0.9 | 7.8 | 0.07 | 0.25 | 0.15 | 94 | 1005.6 |
| 20260506163046 | 53 | 159 | 0.9 | 7.8 | 0.08 | 0.25 | 0.15 | 94 | 1005.6 |
| 20260506162522 | 53 | 153 | 1.7 | 7.8 | 0.07 | 0.24 | 0.14 | 95 | 1005.7 |
| 20260506162021 | 53 | 0 | 0.9 | 8.7 | 0.07 | 0.23 | 0.13 | 95 | 1005.7 |
| 20260506161552 | 53 | 125 | 2.6 | 8.7 | 0.07 | 0.23 | 0.13 | 94 | 1005.8 |
| 20260506161021 | 53 | 145 | 2.6 | 7.0 | 0.05 | 0.21 | 0.11 | 94 | 1005.8 |
| 20260506160524 | 53 | 101 | 1.7 | 11.3 | 0.06 | 0.21 | 0.11 | 94 | 1005.8 |
| 20260506160037 | 53 | 151 | 2.6 | 11.3 | 0.05 | 0.20 | 0.10 | 94 | 1006.0 |
| 20260506155521 | 53 | 128 | 1.7 | 8.7 | 0.05 | 0.20 | 0.10 | 94 | 1006.2 |
| 20260506155022 | 53 | 173 | 1.7 | 14.8 | 0.05 | 0.19 | 0.09 | 93 | 1006.2 |
| 20260506154537 | 53 | 155 | 3.5 | 14.8 | 0.04 | 0.18 | 0.08 | 93 | 1006.2 |
| 20260506154021 | 53 | 113 | 3.5 | 12.2 | 0.04 | 0.18 | 0.08 | 93 | 1006.2 |
| 20260506153522 | 53 | 165 | 4.3 | 12.2 | 0.04 | 0.17 | 0.07 | 93 | 1006.4 |
| 20260506153036 | 53 | 178 | 2.6 | 14.8 | 0.04 | 0.17 | 0.07 | 93 | 1006.4 |
| 20260506152521 | 53 | 119 | 1.7 | 14.8 | 0.04 | 0.17 | 0.07 | 93 | 1006.4 |
| 20260506152021 | 53 | 150 | 2.6 | 10.4 | 0.03 | 0.16 | 0.06 | 93 | 1006.6 |
| 20260506151536 | 53 | 161 | 2.6 | 10.4 | 0.03 | 0.16 | 0.06 | 93 | 1006.6 |
| 20260506151021 | 53 | 134 | 3.5 | 13.0 | 0.03 | 0.16 | 0.06 | 92 | 1006.8 |
| 20260506150521 | 53 | 281 | 3.5 | 13.0 | 0.02 | 0.15 | 0.05 | 92 | 1006.7 |
| 20260506150041 | 53 | 167 | 1.7 | 8.7 | 0.03 | 0.15 | 0.05 | 93 | 1006.9 |
| 20260506145522 | 53 | 90 | 1.7 | 7.8 | 0.03 | 0.15 | 0.05 | 93 | 1006.8 |
| 20260506145021 | 53 | 153 | 0.9 | 7.8 | 0.02 | 0.14 | 0.04 | 93 | 1006.8 |
| 20260506144540 | 53 | 188 | 2.6 | 7.8 | 0.02 | 0.14 | 0.04 | 93 | 1006.8 |
| 20260506144022 | 53 | 103 | 0.9 | 10.4 | 0.02 | 0.14 | 0.04 | 93 | 1006.9 |
| 20260506143519 | 53 | 167 | 2.6 | 10.4 | 0.01 | 0.13 | 0.03 | 92 | 1007.0 |
| 20260506143036 | 53 | 175 | 1.7 | 7.8 | 0.01 | 0.13 | 0.03 | 92 | 1006.9 |
| 20260506142519 | 53 | 146 | 1.7 | 7.8 | 0.01 | 0.13 | 0.03 | 92 | 1006.8 |
| 20260506142022 | 53 | 150 | 0.9 | 7.8 | 0.02 | 0.13 | 0.03 | 92 | 1006.8 |
| 20260506141533 | 53 | 155 | 2.6 | 7.8 | 0.02 | 0.13 | 0.03 | 91 | 1006.9 |
| 20260506141021 | 53 | 168 | 2.6 | 8.7 | 0.02 | 0.13 | 0.03 | 91 | 1006.8 |
| 20260506140519 | 53 | 164 | 1.7 | 8.7 | 0.02 | 0.13 | 0.03 | 92 | 1006.8 |
| 20260506140040 | 53 | 165 | 0.9 | 12.2 | 0.01 | 0.12 | 0.02 | 92 | 1006.7 |
| 20260506135526 | 53 | 170 | 1.7 | 12.2 | 0.01 | 0.12 | 0.02 | 92 | 1006.7 |
| 20260506135024 | 53 | 169 | 1.7 | 10.4 | 0.01 | 0.12 | 0.02 | 91 | 1006.9 |
| 20260506134608 | 53 | 128 | 3.5 | 10.4 | 0.01 | 0.12 | 0.02 | 91 | 1006.8 |
| 20260506134021 | 53 | 161 | 2.6 | 10.4 | 0.01 | 0.12 | 0.02 | 91 | 1006.9 |
| 20260506133524 | 53 | 92 | 1.7 | 9.6 | 0.01 | 0.12 | 0.02 | 91 | 1006.7 |
| 20260506133036 | 53 | 141 | 2.6 | 13.0 | 0.01 | 0.12 | 0.02 | 91 | 1006.6 |
| 20260506132522 | 53 | 293 | 1.7 | 13.0 | 0.01 | 0.12 | 0.02 | 92 | 1006.6 |
| 20260506132023 | 53 | 0 | 0.9 | 8.7 | 0.00 | 0.11 | 0.01 | 91 | 1006.8 |
| 20260506131543 | 53 | 114 | 0.9 | 7.0 | 0.00 | 0.11 | 0.01 | 91 | 1006.8 |
| 20260506131019 | 53 | 141 | 1.7 | 7.0 | 0.00 | 0.11 | 0.01 | 91 | 1007.0 |
| 20260506130523 | 53 | 171 | 1.7 | 7.0 | 0.00 | 0.11 | 0.01 | 91 | 1007.1 |
| 20260506130034 | 53 | 166 | 1.7 | 5.2 | 0.00 | 0.11 | 0.01 | 91 | 1007.1 |
| 20260506125521 | 53 | 126 | 0.0 | 6.1 | 0.00 | 0.11 | 0.01 | 91 | 1007.1 |
| 20260506125018 | 53 | 0 | 0.9 | 6.1 | 0.00 | 0.11 | 0.01 | 92 | 1007.4 |
| 20260506124534 | 53 | 162 | 0.9 | 6.1 | 0.00 | 0.11 | 0.01 | 91 | 1007.3 |
| 20260506124022 | 53 | 136 | 0.9 | 4.3 | 0.00 | 0.11 | 0.01 | 91 | 1007.3 |
| 20260506123522 | 53 | 161 | 0.9 | 4.3 | 0.00 | 0.11 | 0.01 | 91 | 1007.1 |
| 20260506123044 | 53 | 0 | 0.0 | 3.5 | 0.00 | 0.11 | 0.01 | 92 | 1007.1 |
| 20260506122522 | 52 | 0 | 0.0 | 3.5 | 0.00 | 0.11 | 0.01 | 93 | 1007.0 |
| 20260506122023 | 52 | 0 | 0.0 | 2.6 | 0.00 | 0.11 | 0.01 | 94 | 1007.1 |
| 20260506121536 | 51 | 0 | 0.0 | 2.6 | 0.00 | 0.11 | 0.01 | 94 | 1007.2 |
| 20260506121022 | 51 | 0 | 0.0 | 1.7 | 0.00 | 0.11 | 0.01 | 94 | 1007.2 |
| 20260506120522 | 51 | 0 | 0.0 | 2.6 | 0.00 | 0.11 | 0.01 | 94 | 1007.2 |
| 20260506120035 | 51 | 146 | 0.0 | 2.6 | 0.00 | 0.11 | 0.01 | 94 | 1007.3 |
| 20260506115518 | 51 | 0 | 0.0 | 1.7 | 0.00 | 0.11 | 0.01 | 93 | 1007.3 |
| 20260506115021 | 51 | 146 | 0.0 | 4.3 | 0.00 | 0.11 | 0.01 | 93 | 1007.3 |
| 20260506114543 | 51 | 0 | 0.0 | 4.3 | 0.00 | 0.11 | 0.01 | 93 | 1007.2 |
| 20260506114022 | 51 | 0 | 0.9 | 4.3 | 0.00 | 0.11 | 0.01 | 93 | 1007.4 |
| 20260506113522 | 51 | 0 | 0.0 | 5.2 | 0.00 | 0.11 | 0.01 | 92 | 1007.4 |
| 20260506113037 | 51 | 148 | 0.9 | 5.2 | 0.00 | 0.11 | 0.01 | 92 | 1007.4 |
| 20260506112519 | 51 | 143 | 0.9 | 4.3 | 0.00 | 0.11 | 0.01 | 91 | 1007.2 |
| 20260506112020 | 51 | 135 | 0.9 | 5.2 | 0.00 | 0.11 | 0.01 | 90 | 1007.4 |
| 20260506111533 | 52 | 133 | 1.7 | 5.2 | 0.00 | 0.11 | 0.01 | 89 | 1007.3 |
| 20260506111021 | 52 | 105 | 0.9 | 5.2 | 0.00 | 0.11 | 0.01 | 88 | 1007.2 |
| 20260506110523 | 52 | 98 | 0.9 | 5.2 | 0.00 | 0.11 | 0.01 | 88 | 1007.2 |
| 20260506110041 | 52 | 96 | 0.9 | 5.2 | 0.00 | 0.11 | 0.01 | 87 | 1007.2 |
| 20260506105520 | 52 | 118 | 2.6 | 5.2 | 0.00 | 0.11 | 0.01 | 87 | 1007.1 |
| 20260506105021 | 51 | 157 | 0.9 | 4.3 | 0.00 | 0.11 | 0.01 | 85 | 1007.4 |
| 20260506104536 | 51 | 207 | 0.9 | 4.3 | 0.00 | 0.11 | 0.01 | 85 | 1007.3 |
| 20260506104020 | 51 | 213 | 0.0 | 2.6 | 0.00 | 0.11 | 0.01 | 86 | 1007.3 |
| 20260506103520 | 50 | 0 | 0.0 | 2.6 | 0.00 | 0.11 | 0.01 | 87 | 1007.4 |
| 20260506103036 | 50 | 213 | 0.0 | 2.6 | 0.00 | 0.11 | 0.01 | 88 | 1007.4 |
| 20260506102520 | 50 | 0 | 0.0 | 2.6 | 0.00 | 0.11 | 0.01 | 89 | 1007.2 |
| 20260506102020 | 50 | 0 | 0.0 | 1.7 | 0.00 | 0.11 | 0.01 | 90 | 1007.2 |
| 20260506101537 | 50 | 0 | 0.0 | 0.0 | 0.00 | 0.11 | 0.01 | 91 | 1007.4 |
| 20260506101021 | 50 | 0 | 0.0 | 0.0 | 0.00 | 0.11 | 0.01 | 91 | 1007.3 |
| 20260506100520 | 50 | 0 | 0.0 | 0.0 | 0.00 | 0.11 | 0.01 | 91 | 1007.3 |
| 20260506100036 | 50 | 0 | 0.0 | 0.0 | 0.00 | 0.11 | 0.01 | 91 | 1007.1 |
| 20260506095524 | 49 | 0 | 0.0 | 0.0 | 0.00 | 0.11 | 0.01 | 91 | 1007.4 |
| 20260506095022 | 49 | 0 | 0.0 | 0.0 | 0.00 | 0.11 | 0.01 | 91 | 1007.3 |
| 20260506094613 | 49 | 0 | 0.0 | 0.0 | 0.00 | 0.11 | 0.01 | 91 | 1007.3 |
| 20260506094023 | 49 | 0 | 0.0 | 0.0 | 0.00 | 0.11 | 0.01 | 91 | 1007.5 |
| 20260506093520 | 49 | 0 | 0.0 | 0.0 | 0.00 | 0.11 | 0.01 | 91 | 1007.4 |
| 20260506093037 | 49 | 0 | 0.0 | 0.0 | 0.00 | 0.11 | 0.01 | 91 | 1007.4 |
| 20260506092519 | 50 | 0 | 0.0 | 0.0 | 0.00 | 0.11 | 0.01 | 91 | 1007.3 |
| 20260506092020 | 50 | 0 | 0.0 | 0.0 | 0.00 | 0.11 | 0.01 | 90 | 1007.3 |
| 20260506091537 | 50 | 0 | 0.0 | 0.0 | 0.00 | 0.11 | 0.01 | 90 | 1007.3 |
| 20260506091022 | 50 | 0 | 0.0 | 0.0 | 0.00 | 0.11 | 0.01 | 90 | 1007.4 |
| 20260506090521 | 50 | 0 | 0.0 | 0.0 | 0.00 | 0.11 | 0.01 | 90 | 1007.5 |
| 20260506090035 | 50 | 0 | 0.0 | 0.0 | 0.00 | 0.11 | 0.01 | 90 | 1007.5 |